{"data":{"norad_id":62050,"intl_designator":"2024-216U","name":"STARLINK-32492","alt_names":[],"object_type":"PAYLOAD","status":"ACTIVE","operator":null,"country":"US","launch_date":"2024-11-21","launch_site_code":"AFETR","launch_vehicle":null,"mission":null,"orbit_class":"UNKNOWN","rcs_meters":null,"size_class":null,"mass_kg":null,"dimensions":null,"purposes":["comms"],"wikipedia_slug":null,"has_3d_model":false,"image_url":null,"decayed_at":null,"tle_current":{"epoch":"2026-09-21T15:25:08.652000Z","epoch_age_seconds":86832,"freshness":"FRESH","line1":"1 62050U 24216U   26264.64246125  .00013243  00000+0  48983-3 0  9995","line2":"2 62050  43.0021 236.6432 0001534 267.0289  93.0387 15.27585535103761","mean_motion":15.27585535,"eccentricity":0.0001534,"inclination_deg":43.0021,"raan_deg":236.6432,"arg_perigee_deg":267.0289,"mean_anomaly_deg":93.0387,"bstar":0.00048983,"rev_number":10376,"period_min":94.266407150811,"perigee_km":481.98001890377,"apogee_km":484.08502571321,"semimajor_km":6861.1695223085,"source":"CELESTRAK","updated_at":"2026-09-22T09:00:49.489914Z"}}}